User: anonymous   Login
Location: NJAA Observatory
(40.6819°N, 74.8979°W)
Time: 02:15:09
(UTC-05:00)
Language:

Cosmos 1461 - Orbit

View from above orbital plane
View from above orbital plane
View from above satellite
View from above satellite

Ground track
Ground track

The orbit data is extracted from the following two-line orbital elements,

1 14064U 83044A   14352.85921093  .00006063  00000-0  58736-3 0  7205
2 14064 065.0038 219.2819 0098023 038.0517 322.7466 14.89998875587353
Epoch (UTC): 18 December 2014 20:37:15
Eccentricity: 0.0098023
inclination: 65.0038°
perigee height: 529 km
apogee height: 666 km
right ascension of ascending node: 219.2819°
argument of perigee: 38.0517°
revolutions per day: 14.89998875
mean anomaly at epoch: 322.7466°
orbit number at epoch: 58735

The dashed part of the orbit path shows where the satellite is in the earth's shadow,  

DLR